Temperature
22 22 21 21 21 21 23 24 25 24 24 23 23 23 22 21 20 19 19 19 19 19 19 19 19 19 19 19 19 19 19 19 19 19 19 19 19 19 19 19 19 19 19 19 19 19 19 18 18
22 22 21 21 21 21 23 24 24 24 24 24 23 22 21 20 19 19 18 19 19 19 19 19 19 19 19 19 19 19 19 19 19 19 19 19 19 19 19 19 19 19 19 19 19 19 19 18 18
22 22 21 20 21 22 23 25 25 25 24 24 23 22 21 20 19 19 19 19 19 19 19 19 19 19 19 19 19 19 19 19 19 19 19 19 19 19 19 19 19 19 19 19 19 19 18 18 18
22 22 22 21 23 24 25 25 26 25 24 23 22 21 21 20 20 19 19 19 19 19 19 19 19 19 19 19 19 19 19 19 19 19 19 19 19 19 19 19 19 19 19 19 19 19 19 18 18
23 23 22 22 24 25 26 26 26 25 24 23 22 21 20 20 20 20 19 20 20 19 19 19 19 19 19 19 19 19 19 19 19 19 19 19 19 19 19 19 19 19 19 19 19 19 19 18 18
24 22 22 23 25 26 26 26 25 24 23 22 21 20 20 20 20 20 20 20 20 20 19 19 19 19 19 19 19 19 19 19 19 19 19 19 19 19 19 19 19 19 19 19 19 19 18 18 18
23 22 23 24 25 26 26 26 25 24 23 23 22 20 19 19 20 20 20 20 20 20 20 19 19 19 19 19 19 19 19 19 19 19 19 19 18 19 19 19 19 19 19 19 19 18 18 18 18
25 23 24 24 25 26 27 26 25 24 24 23 22 20 19 19 19 19 20 20 20 20 20 19 19 19 20 19 19 19 19 19 19 19 19 19 19 19 19 19 19 19 19 19 18 18 19 18 18
26 23 24 25 26 26 27 26 25 24 23 23 22 21 20 20 20 19 19 19 19 19 19 19 19 20 20 19 19 19 19 19 19 19 19 19 19 19 19 19 19 19 18 18 18 18 18 18 18
26 23 25 26 27 26 27 26 25 24 23 22 21 21 20 20 20 19 19 19 19 19 19 19 19 19 19 19 19 19 19 19 19 19 19 19 19 19 19 19 19 18 18 18 18 18 18 18 18
25 25 26 27 28 28 27 26 25 24 22 22 21 20 20 20 20 20 20 20 20 20 19 19 19 19 19 19 19 19 19 19 19 19 19 19 19 19 19 19 19 18 18 18 18 18 18 18 18
26 27 28 28 28 28 27 26 25 24 24 23 22 21 21 20 20 20 20 20 20 20 20 19 19 19 19 19 19 19 19 19 19 19 19 19 19 19 19 19 19 19 18 18 18 18 18 18 19
27 28 29 28 28 28 27 26 25 24 24 23 22 21 21 21 21 21 21 20 20 20 20 20 20 19 19 19 19 19 19 19 19 19 19 19 19 19 19 19 19 18 19 19 18 18 18 19 18
28 28 28 28 28 27 26 26 25 23 23 22 21 21 21 21 21 21 21 20 20 20 20 20 20 20 19 19 19 19 19 19 19 19 19 19 19 19 19 19 18 18 18 18 18 19 19 18 18
28 27 27 27 28 27 26 25 24 23 23 22 22 21 21 21 21 21 21 21 21 21 20 20 20 20 19 19 19 19 19 19 19 19 19 19 19 19 19 19 19 18 18 18 18 18 19 19 19
27 26 26 27 27 27 25 24 24 23 23 22 22 22 21 21 22 21 21 21 21 21 20 20 20 20 20 19 19 19 19 19 19 19 19 19 19 19 19 19 19 19 19 19 19 19 19 19 19
25 25 26 27 27 27 25 24 24 24 23 22 22 22 22 22 22 22 21 21 21 21 21 20 20 20 20 20 19 19 19 19 19 19 19 19 19 19 19 19 19 19 19 19 19 19 19 19 19
24 25 26 26 27 27 25 24 25 24 24 23 23 23 22 22 22 22 22 21 21 21 21 20 20 20 20 20 19 19 19 19 19 19 19 19 19 19 19 19 19 19 19 19 19 19 19 19 19
26 26 26 26 27 26 25 24 24 25 24 24 23 23 22 22 22 22 22 22 21 21 21 20 20 20 20 20 20 19 19 19 19 19 19 19 19 19 19 19 19 19 19 19 19 19 19 19 19
27 26 26 26 28 26 25 25 25 25 24 24 24 23 23 22 22 22 22 22 22 21 21 21 20 20 20 20 20 20 19 19 19 19 19 19 19 19 19 19 19 19 19 19 19 19 19 19 18
27 26 26 26 27 26 26 24 24 25 25 25 24 24 23 23 23 22 22 22 22 21 21 21 20 20 20 20 20 19 19 19 19 19 19 19 19 19 19 19 19 19 19 19 19 19 19 19 18
26 28 28 28 25 24 25 23 24 24 24 24 24 24 23 23 23 23 22 22 22 22 21 21 21 20 20 20 20 20 20 19 19 19 19 19 19 19 19 19 19 19 19 19 19 19 18 18 18
28 29 28 27 25 24 24 23 23 23 23 24 24 24 24 24 23 23 23 22 22 22 21 21 21 20 20 20 20 20 20 20 19 19 19 19 19 19 19 19 19 19 19 19 19 19 18 18 18
29 27 26 23 22 23 24 23 23 23 24 24 24 24 24 24 23 23 23 23 22 22 21 21 21 21 20 20 20 20 20 19 19 19 19 19 19 19 19 19 19 19 19 19 19 19 19 18 18
27 24 23 23 22 22 23 24 23 24 25 24 24 24 24 24 23 23 23 22 22 22 21 21 21 21 20 20 20 20 20 20 19 19 19 19 19 19 19 19 19 19 19 19 19 19 19 18 18
26 24 23 23 22 22 23 23 23 25 25 25 25 25 24 24 23 23 23 23 22 22 22 22 21 21 21 20 20 20 20 20 19 19 19 19 19 19 19 19 19 19 19 19 19 18 18 18 18
27 25 23 21 22 22 22 23 24 24 24 24 24 24 24 24 23 23 23 23 22 22 22 22 22 21 21 21 20 20 20 20 20 19 19 19 19 19 19 19 19 19 19 19 18 18 18 18 18
27 25 22 21 22 22 23 23 22 23 23 23 22 23 23 23 23 23 23 23 22 22 22 22 22 21 21 21 20 20 20 20 20 19 19 19 19 19 19 19 19 19 19 18 18 18 18 18 18
26 25 22 20 20 21 22 22 23 22 22 22 22 23 23 23 23 23 23 22 22 22 22 22 21 21 21 21 20 20 20 20 19 19 19 19 19 19 19 19 18 18 18 18 18 18 18 18 18
26 25 22 22 21 19 20 21 24 22 22 23 23 23 23 23 23 23 23 22 22 22 22 22 21 21 21 20 20 20 20 20 19 19 19 19 19 19 18 18 18 18 18 18 18 18 18 18 18
Wind_Speed
8 5 2 0 3 4 4 4 5 7 6 8 12 11 10 7 5 7 5 11 13 11 15 18 18 18 18 18 19 19 19 18 18 18 18 17 17 16 16 15 15 14 13 13 12 12 12 12 11
5 4 1 2 4 4 4 5 9 10 10 11 12 12 10 8 7 10 7 12 14 13 15 17 18 18 18 18 18 18 18 18 17 17 17 16 16 15 15 14 13 13 12 12 11 11 10 10 9
4 3 1 3 3 4 5 6 10 12 10 8 7 7 6 6 8 6 9 15 13 12 15 18 19 18 18 18 18 17 17 17 16 16 15 15 14 14 13 13 12 11 11 11 10 9 9 8 8
2 1 2 4 4 4 7 7 12 12 9 9 10 8 5 6 6 10 15 15 14 11 14 17 18 18 18 17 17 17 17 16 15 15 14 14 13 12 12 12 11 10 10 9 9 8 8 7 6
1 2 4 3 4 4 6 9 10 11 7 9 11 9 5 5 15 17 15 15 14 10 13 16 18 17 17 17 17 16 16 15 14 14 13 12 12 11 11 10 10 10 9 8 8 7 6 5 5
1 2 4 3 5 5 5 9 12 14 14 13 12 9 5 10 15 14 13 12 11 11 12 15 17 17 16 16 15 15 15 14 13 13 12 12 11 10 9 9 9 8 8 7 6 6 5 3 3
2 2 2 4 5 6 7 9 11 12 12 9 9 7 6 9 13 13 13 11 10 11 11 11 13 14 15 15 15 14 14 13 12 12 11 11 10 9 8 8 8 7 7 6 5 4 4 2 1
3 3 2 3 5 5 6 7 9 12 10 11 7 8 8 11 13 13 12 11 10 8 8 9 11 11 12 12 14 14 13 13 12 11 11 10 9 9 8 7 7 6 6 5 5 4 3 2 2
3 3 2 4 6 6 9 10 8 8 11 6 5 7 12 16 17 14 11 9 8 9 7 7 8 9 10 10 12 13 13 12 12 10 10 9 7 7 7 6 6 6 5 5 5 4 3 3 3
4 4 5 4 6 8 10 12 8 7 10 8 10 12 16 16 16 15 14 12 10 10 8 7 7 8 9 9 10 9 9 9 9 8 8 8 7 7 6 6 6 6 6 5 5 5 5 4 4
4 5 3 4 7 9 9 10 7 11 8 10 15 18 17 15 14 14 13 13 11 11 10 9 8 8 8 6 8 7 6 7 8 8 9 8 6 6 5 4 5 5 6 5 5 5 5 5 5
3 3 4 5 7 9 9 8 8 7 9 14 17 18 16 15 13 13 13 12 10 10 10 9 8 7 7 7 7 7 6 6 6 7 9 8 4 4 4 4 4 4 5 4 4 4 5 6 6
3 1 2 4 7 9 10 9 9 8 12 15 16 16 15 14 12 11 11 11 10 10 10 9 8 8 7 6 5 6 5 6 6 7 8 9 6 4 4 3 4 5 5 4 4 4 4 4 4
2 1 2 6 7 8 12 9 8 10 14 16 15 13 13 13 12 11 10 10 10 10 10 9 9 7 7 5 4 5 6 7 7 6 8 9 8 5 4 3 3 4 6 6 5 4 3 2 1
2 4 3 2 4 5 10 7 8 13 15 15 14 13 13 12 12 12 12 11 11 10 10 9 9 7 6 5 4 5 6 7 6 6 7 8 8 6 4 3 2 4 5 5 3 2 2 1 1
4 4 1 3 3 4 8 5 7 12 14 13 13 13 13 11 12 12 12 11 10 10 10 9 9 8 6 5 4 4 5 6 6 6 6 7 7 6 4 2 2 3 3 2 1 1 1 1 1
5 1 2 3 2 5 6 5 8 11 13 12 13 13 12 11 11 11 12 12 11 11 11 9 8 8 7 5 4 4 4 4 5 6 6 7 7 7 4 2 2 2 1 1 1 0 1 1 2
3 3 2 2 2 4 5 6 9 13 13 13 12 12 12 13 12 12 13 13 12 11 10 9 8 8 6 4 2 2 2 2 3 4 6 7 6 6 4 2 2 1 1 0 1 1 1 1 2
6 4 4 5 5 3 6 9 11 12 12 12 12 12 13 13 11 11 12 13 11 10 9 9 8 7 6 4 3 3 2 2 2 3 6 7 6 6 4 2 2 1 1 1 2 1 1 1 1
5 5 5 5 5 5 5 6 10 13 15 15 16 15 15 12 10 11 11 12 12 12 10 9 9 8 7 5 4 3 3 2 2 3 4 7 7 6 5 4 3 2 1 1 1 1 0 1 0
6 7 6 4 1 2 5 1 5 7 8 10 13 14 15 17 16 14 13 13 12 13 13 11 9 8 7 6 3 2 1 0 0 2 3 4 7 6 5 4 3 3 3 2 2 2 2 1 2
6 9 7 4 2 1 2 2 5 7 7 11 12 12 13 14 14 14 14 14 14 13 12 10 10 8 7 7 5 5 4 4 4 4 3 4 5 6 6 5 4 3 3 3 3 3 2 2 1
7 6 5 4 3 1 1 2 5 3 6 10 12 14 14 14 15 16 15 15 13 12 11 10 9 8 8 7 7 6 5 4 3 3 4 4 4 5 5 5 4 4 3 4 4 3 3 3 3
2 3 4 4 5 1 4 3 4 4 9 8 9 12 13 13 13 13 12 12 11 11 10 10 9 8 8 8 8 8 7 6 4 4 4 4 3 3 4 4 4 4 4 4 4 4 3 3 3
5 6 4 5 4 4 4 2 5 6 7 8 9 10 11 12 12 12 12 12 12 12 11 10 10 9 9 8 8 8 7 7 7 6 6 5 4 4 5 5 4 4 5 4 4 4 3 3 3
2 8 7 5 4 4 4 1 5 3 4 6 7 8 10 11 11 12 13 13 13 13 12 11 11 10 9 9 9 7 7 5 5 5 5 5 5 5 5 5 5 5 5 5 4 4 4 3 4
2 2 8 7 3 1 3 2 4 4 6 5 6 7 8 9 10 10 10 10 10 12 12 12 12 10 10 10 8 7 7 6 6 5 5 4 4 5 5 5 5 6 6 5 5 4 4 4 4
3 4 6 5 4 2 3 2 4 4 4 5 6 6 7 8 8 8 8 8 7 8 9 10 10 11 9 9 8 8 7 7 6 5 5 5 5 5 5 4 5 5 5 5 5 4 4 4 4
1 2 4 4 6 6 3 5 5 8 7 8 7 6 7 8 9 8 7 7 6 6 6 6 8 8 8 9 8 7 6 6 6 5 6 6 5 5 5 5 5 5 5 5 5 5 5 5 5
4 4 5 4 2 4 5 5 3 6 7 9 8 7 7 7 7 7 7 6 6 5 4 5 6 7 8 8 7 7 6 6 6 6 6 5 5 6 6 5 5 6 6 5 6 7 6 6 7
Wind_Direction
175 172 171 209 48 53 75 91 100 90 69 70 78 85 84 66 93 125 139 136 136 137 134 129 127 124 121 118 115 113 111 109 106 106 106 106 106 106 106 108 108 108 108 107 107 108 110 110 110
164 174 183 42 71 79 71 95 98 104 123 108 81 78 75 71 83 112 125 137 136 135 133 133 131 129 125 121 118 117 115 113 111 109 109 109 109 109 109 111 112 111 110 111 110 110 111 111 110
175 198 126 64 78 122 121 111 111 112 116 103 87 63 67 95 107 118 137 138 134 133 134 137 135 133 129 126 123 121 119 118 117 115 113 112 112 113 113 115 115 113 113 114 114 114 112 111 109
160 120 49 72 94 118 129 134 120 114 91 85 98 80 69 102 117 129 136 137 134 133 138 140 139 137 134 130 128 126 124 123 122 120 118 118 118 118 118 119 121 119 117 117 117 116 112 111 110
148 86 63 77 96 97 121 124 114 111 98 97 99 98 81 87 116 128 136 139 138 138 141 143 142 140 137 135 133 131 130 128 127 126 125 124 123 122 122 124 125 125 123 120 120 119 121 118 112
54 72 77 98 107 108 116 115 103 103 110 109 105 102 96 123 126 134 136 138 139 141 143 145 145 144 142 140 139 138 137 135 134 133 131 130 131 130 130 130 132 134 135 135 133 131 132 127 116
112 94 128 134 113 112 121 117 116 123 123 123 123 104 115 137 137 138 137 136 135 138 141 146 149 149 149 148 148 146 144 144 144 144 142 141 141 142 142 144 147 150 152 152 153 153 159 168 179
165 113 103 126 127 127 129 112 122 129 119 125 123 128 149 159 143 136 134 131 135 138 144 150 151 151 154 156 157 156 156 154 154 155 153 154 155 156 158 159 162 165 169 172 178 183 196 213 233
130 92 147 160 140 132 127 111 109 105 113 116 110 126 147 146 139 136 132 130 140 148 154 154 154 157 159 163 166 165 165 165 164 165 165 166 169 173 173 174 178 184 190 198 203 211 222 241 252
123 137 191 182 144 136 133 127 130 114 104 98 103 120 137 141 144 146 148 152 158 162 168 166 165 168 170 171 164 167 169 174 177 181 178 178 183 189 186 193 200 207 214 222 228 238 248 262 266
148 164 179 143 147 136 130 127 123 122 125 142 142 146 149 147 151 154 159 162 167 167 171 173 172 174 173 165 159 173 178 181 189 193 188 181 184 191 193 202 211 228 236 241 249 260 260 262 261
127 157 152 143 138 131 130 131 118 130 151 150 148 150 151 153 159 161 163 166 164 164 170 173 172 170 168 162 167 176 178 185 189 189 187 180 176 181 194 198 209 226 234 233 240 252 258 262 264
130 145 124 140 124 121 118 121 118 120 130 138 144 150 156 160 164 166 164 163 161 162 167 170 166 163 161 158 167 172 180 184 187 190 189 184 178 185 193 204 212 227 231 225 229 243 257 262 259
177 101 98 116 115 123 119 118 105 130 137 141 150 158 164 167 166 162 163 164 167 167 167 166 163 163 159 159 165 172 176 179 184 194 192 188 184 185 186 198 212 227 228 227 225 230 238 244 233
79 74 47 105 109 129 118 103 130 146 146 149 158 164 167 171 169 169 171 168 169 166 164 164 165 162 160 159 166 167 174 173 182 195 195 186 179 178 181 193 213 227 226 222 218 242 246 259 251
25 44 34 264 128 138 109 139 154 154 152 159 167 170 172 175 176 174 171 168 164 160 160 168 169 164 165 159 157 161 167 172 184 196 188 178 179 183 182 190 226 237 225 197 185 230 259 286 276
21 22 257 285 166 148 126 159 170 166 159 168 175 176 175 176 178 175 171 167 163 164 164 169 166 165 171 166 162 159 160 174 187 193 188 185 183 186 183 200 232 237 215 203 235 169 198 246 270
246 252 261 244 236 134 137 171 182 177 174 177 178 176 177 181 183 176 170 167 164 166 165 165 161 167 164 157 145 131 150 184 191 196 201 201 200 193 185 207 238 226 174 224 253 232 242 236 253
199 213 238 242 213 162 168 177 187 184 183 180 180 182 182 185 180 171 168 166 164 166 165 165 161 168 161 158 162 161 187 200 202 203 202 205 206 201 192 200 218 200 185 216 225 214 309 301 289
209 226 253 274 219 180 181 195 193 188 193 188 186 188 185 179 172 173 169 169 172 171 173 172 173 173 174 175 173 171 173 193 201 210 208 208 204 203 201 192 206 203 189 229 232 161 337 304 334
242 218 222 229 325 68 115 122 198 208 202 197 196 192 184 181 179 177 173 173 173 177 180 182 183 177 177 172 155 147 110 58 246 222 217 216 202 201 200 194 196 203 185 205 223 200 182 243 288
247 233 203 181 111 253 145 203 248 207 198 199 200 191 186 185 180 180 177 177 179 183 181 179 178 174 174 169 168 177 189 203 218 212 213 225 214 211 206 197 194 200 195 207 221 197 191 184 249
231 228 183 185 141 54 337 138 277 193 201 205 194 188 186 184 183 183 181 180 179 178 178 178 175 178 178 178 182 188 203 214 217 211 212 225 233 228 216 199 192 201 203 208 213 210 203 193 200
230 37 44 53 73 357 255 153 264 221 206 194 187 185 184 180 179 181 180 175 175 176 179 178 176 184 185 184 187 193 199 204 204 212 216 224 233 239 233 213 201 206 208 210 212 210 210 210 206
63 83 38 2 12 259 275 136 244 237 198 176 174 178 178 175 173 172 172 175 176 177 180 180 181 189 189 187 192 196 198 199 206 210 211 212 220 228 233 228 217 217 214 208 201 203 216 216 211
175 138 157 192 213 271 339 206 267 267 135 140 146 150 159 170 175 175 177 178 180 182 183 182 186 194 194 193 198 200 197 201 209 207 204 210 215 223 226 224 223 221 213 210 198 205 217 214 218
158 184 171 143 137 96 298 302 340 42 87 104 120 128 147 158 169 176 175 178 181 184 187 190 189 194 196 198 198 199 199 202 208 209 209 218 224 229 224 222 225 223 214 209 200 210 221 222 226
163 167 89 109 142 195 292 274 213 198 144 131 129 138 146 147 149 157 166 175 183 183 185 190 191 194 194 193 199 206 206 208 207 204 215 223 226 231 223 225 225 225 221 217 208 213 218 219 236
346 39 97 116 149 153 205 268 220 190 166 154 149 144 142 144 151 156 159 160 156 156 170 179 188 191 190 192 198 203 202 207 206 212 222 225 227 226 226 228 225 221 219 219 217 224 225 230 243
159 160 134 142 220 156 158 258 264 172 156 146 147 145 139 138 144 152 154 146 145 149 159 181 187 190 194 190 189 200 202 202 206 219 228 228 230 231 228 227 226 224 223 219 219 226 229 228 237
Height
1512 1512 1512 1513 1514 1522 1523 1515 1510 1510 1512 1513 1512 1513 1516 1520 1525 1534 1533 1533 1536 1537 1539 1541 1542 1543 1544 1545 1547 1548 1548 1549 1550 1551 1552 1553 1554 1554 1555 1556 1556 1557 1557 1558 1558 1559 1559 1560 1560
1512 1512 1513 1514 1520 1533 1527 1514 1513 1512 1513 1513 1515 1517 1518 1523 1525 1528 1531 1535 1537 1538 1540 1542 1543 1545 1546 1547 1548 1549 1550 1551 1552 1553 1554 1555 1555 1556 1557 1557 1558 1558 1559 1559 1560 1560 1561 1561 1562
1512 1513 1515 1516 1523 1530 1525 1514 1511 1512 1513 1513 1517 1520 1522 1526 1528 1530 1532 1535 1538 1540 1541 1543 1545 1546 1547 1548 1550 1551 1552 1553 1554 1555 1555 1556 1557 1558 1558 1559 1559 1560 1560 1561 1561 1562 1562 1563 1563
1513 1515 1516 1520 1523 1517 1514 1512 1511 1513 1515 1516 1517 1523 1526 1529 1529 1531 1534 1536 1539 1541 1543 1544 1546 1547 1549 1550 1551 1552 1553 1554 1556 1556 1557 1558 1558 1559 1560 1560 1561 1561 1562 1562 1562 1563 1563 1564 1564
1513 1514 1520 1524 1520 1513 1510 1510 1510 1512 1516 1519 1519 1525 1529 1532 1532 1533 1535 1538 1539 1541 1543 1545 1547 1548 1550 1551 1552 1554 1555 1556 1557 1558 1558 1559 1560 1560 1561 1562 1562 1563 1563 1563 1564 1564 1564 1565 1566
1514 1515 1526 1529 1520 1513 1511 1511 1512 1515 1519 1522 1522 1526 1532 1534 1534 1535 1537 1539 1541 1542 1544 1546 1548 1550 1551 1553 1554 1555 1556 1557 1558 1559 1560 1560 1561 1562 1562 1563 1563 1564 1564 1565 1565 1565 1566 1566 1567
1516 1518 1524 1522 1519 1516 1513 1512 1513 1517 1519 1522 1523 1527 1533 1535 1536 1537 1539 1541 1542 1544 1545 1547 1549 1551 1552 1553 1555 1556 1557 1558 1559 1560 1561 1562 1562 1563 1564 1564 1565 1565 1565 1566 1566 1566 1567 1567 1568
1513 1517 1522 1520 1519 1517 1512 1513 1515 1516 1520 1523 1524 1526 1531 1535 1536 1538 1540 1542 1544 1545 1547 1548 1550 1552 1553 1554 1555 1557 1558 1559 1560 1561 1562 1563 1563 1564 1565 1565 1566 1566 1566 1567 1567 1567 1568 1568 1568
1513 1521 1525 1519 1516 1515 1512 1514 1518 1519 1520 1523 1524 1526 1529 1534 1536 1539 1541 1543 1545 1546 1548 1549 1551 1552 1554 1555 1556 1557 1559 1560 1561 1562 1563 1564 1565 1565 1566 1566 1567 1567 1567 1567 1568 1568 1568 1569 1569
1511 1522 1517 1510 1508 1511 1512 1514 1517 1521 1522 1525 1526 1529 1532 1535 1537 1538 1540 1542 1545 1547 1549 1550 1552 1553 1554 1555 1557 1558 1559 1561 1562 1563 1564 1565 1566 1566 1567 1567 1567 1568 1568 1568 1568 1568 1569 1569 1569
1510 1513 1508 1507 1507 1509 1512 1515 1516 1519 1523 1524 1526 1529 1532 1535 1537 1539 1541 1542 1544 1547 1549 1550 1552 1553 1555 1556 1557 1558 1560 1561 1563 1564 1565 1565 1566 1567 1568 1568 1568 1568 1568 1569 1569 1569 1569 1569 1569
1508 1507 1506 1507 1507 1508 1511 1514 1517 1519 1522 1523 1525 1528 1532 1535 1537 1539 1541 1543 1545 1547 1549 1551 1552 1553 1555 1556 1557 1559 1560 1562 1563 1564 1565 1566 1566 1567 1568 1568 1569 1569 1569 1569 1569 1569 1569 1569 1569
1507 1507 1506 1506 1507 1509 1511 1515 1518 1521 1523 1526 1528 1531 1533 1535 1538 1540 1542 1543 1545 1547 1549 1551 1552 1553 1555 1556 1558 1559 1561 1562 1564 1565 1565 1566 1567 1568 1568 1569 1569 1569 1569 1569 1569 1569 1569 1569 1569
1507 1506 1506 1507 1507 1511 1512 1517 1519 1524 1524 1527 1530 1532 1534 1535 1537 1540 1542 1544 1545 1547 1549 1551 1552 1554 1556 1557 1558 1560 1561 1562 1564 1565 1565 1566 1567 1568 1568 1569 1569 1569 1569 1569 1569 1569 1569 1569 1569
1506 1508 1508 1508 1508 1512 1514 1521 1521 1523 1525 1527 1529 1532 1534 1536 1537 1539 1541 1543 1545 1547 1549 1551 1553 1554 1556 1557 1559 1560 1561 1562 1563 1564 1565 1566 1567 1568 1568 1568 1568 1569 1569 1568 1569 1569 1569 1568 1568
1508 1513 1520 1511 1509 1512 1518 1531 1524 1524 1525 1527 1529 1531 1533 1535 1536 1538 1540 1543 1545 1547 1548 1550 1552 1554 1556 1557 1559 1560 1561 1562 1563 1564 1565 1565 1566 1567 1567 1567 1568 1568 1568 1568 1568 1568 1568 1568 1567
1520 1527 1524 1516 1509 1511 1517 1527 1523 1524 1524 1526 1527 1529 1532 1534 1536 1537 1539 1541 1544 1546 1548 1550 1552 1554 1555 1557 1558 1559 1560 1562 1562 1563 1564 1565 1566 1566 1567 1567 1567 1567 1567 1567 1567 1567 1567 1567 1566
1530 1527 1522 1519 1511 1511 1517 1521 1520 1522 1522 1523 1526 1528 1530 1531 1533 1535 1537 1540 1543 1545 1547 1549 1551 1553 1555 1556 1558 1559 1560 1561 1562 1562 1563 1564 1565 1565 1565 1566 1566 1566 1566 1566 1566 1566 1566 1566 1565
1515 1519 1522 1515 1508 1513 1517 1519 1517 1519 1520 1522 1524 1525 1527 1528 1531 1534 1536 1539 1541 1544 1546 1548 1550 1552 1554 1555 1556 1558 1559 1560 1561 1561 1562 1563 1564 1564 1564 1564 1565 1565 1565 1565 1565 1565 1565 1564 1564
1512 1519 1520 1513 1506 1511 1517 1517 1514 1515 1516 1516 1518 1521 1523 1527 1530 1532 1534 1537 1539 1541 1544 1546 1548 1550 1552 1554 1556 1557 1558 1559 1560 1561 1561 1562 1562 1563 1563 1563 1563 1564 1564 1564 1564 1564 1563 1563 1562
1512 1515 1516 1515 1510 1510 1516 1524 1519 1515 1515 1517 1517 1518 1520 1522 1525 1528 1531 1534 1537 1539 1542 1544 1546 1548 1550 1552 1554 1556 1557 1558 1558 1559 1560 1561 1561 1562 1562 1562 1562 1562 1562 1562 1562 1562 1562 1561 1561
1514 1502 1503 1508 1518 1527 1520 1540 1524 1516 1515 1515 1515 1517 1518 1520 1523 1525 1528 1531 1534 1537 1540 1542 1545 1546 1549 1551 1552 1553 1554 1555 1556 1557 1558 1559 1560 1560 1561 1561 1561 1561 1561 1561 1560 1560 1560 1560 1560
1501 1494 1499 1505 1516 1526 1523 1535 1529 1517 1517 1512 1511 1513 1515 1517 1520 1522 1525 1528 1532 1535 1538 1540 1543 1545 1547 1548 1550 1551 1552 1553 1555 1556 1556 1557 1558 1559 1559 1559 1559 1559 1559 1559 1559 1558 1558 1558 1558
1491 1497 1504 1513 1525 1540 1527 1533 1533 1519 1512 1508 1508 1510 1512 1514 1518 1521 1524 1527 1530 1533 1536 1538 1540 1542 1544 1546 1547 1549 1550 1551 1552 1553 1554 1555 1555 1556 1557 1557 1557 1556 1556 1556 1556 1556 1556 1556 1556
1495 1517 1538 1542 1550 1545 1525 1528 1528 1507 1502 1503 1505 1507 1509 1512 1515 1518 1522 1525 1527 1530 1533 1535 1537 1539 1541 1543 1545 1546 1547 1548 1549 1550 1551 1552 1553 1553 1554 1554 1554 1554 1554 1554 1554 1554 1554 1554 1553
1499 1513 1538 1550 1554 1545 1528 1532 1519 1502 1500 1502 1503 1504 1507 1511 1514 1516 1518 1521 1524 1527 1530 1532 1534 1536 1539 1540 1542 1543 1545 1546 1547 1548 1548 1549 1550 1551 1551 1552 1552 1551 1551 1551 1551 1551 1551 1551 1551
1499 1508 1511 1531 1538 1546 1539 1526 1513 1503 1503 1504 1505 1505 1506 1509 1512 1515 1517 1519 1522 1524 1527 1530 1531 1534 1536 1538 1539 1541 1542 1543 1544 1545 1546 1546 1547 1548 1548 1548 1548 1548 1548 1548 1548 1548 1548 1549 1548
1491 1497 1516 1530 1546 1552 1542 1534 1528 1514 1509 1506 1506 1506 1506 1508 1511 1514 1516 1519 1521 1523 1525 1527 1530 1531 1533 1535 1536 1537 1539 1540 1541 1542 1543 1543 1544 1544 1545 1545 1545 1545 1545 1545 1545 1545 1545 1546 1545
1497 1501 1512 1527 1532 1548 1552 1540 1509 1508 1506 1506 1506 1506 1507 1509 1511 1513 1515 1517 1519 1521 1523 1525 1527 1529 1531 1532 1534 1535 1536 1537 1537 1538 1539 1540 1541 1541 1541 1541 1541 1541 1541 1541 1542 1541 1542 1542 1543
1491 1499 1510 1526 1531 1536 1543 1536 1503 1502 1501 1502 1504 1505 1507 1508 1510 1512 1514 1516 1518 1519 1522 1523 1525 1527 1528 1529 1531 1532 1532 1533 1533 1534 1535 1536 1536 1537 1538 1538 1538 1538 1538 1538 1538 1538 1538 1538 1539